Terug naar catalogus

DELTA 1 DEB

ActiefSSO
NORAD 8958·DEBRIS·🇺🇸 United States

Gelanceerd Jan 22, 1975 vanaf Vandenberg Space Force Base

Loading…

Volgende Passages (komende 24 uur)

TLE

VersSource: Space-Track

Epoch: Sep 14, 2026, 06:29 UTC

1 08958U 75004AQ  26257.27053395  .00000654  00000-0  13310-3 0  9998
2 08958  98.0496 201.4536 0034286 145.0947 215.2514 14.63888277674845

Volg DELTA 1 DEB in realtime met AllMySat

Download on the App Store